[[[{"header":{"parameterUnit":"kt","parameterCategory":2,"dx":1,"dy":1,"la1":30.253999710083008,"la2":30.299108505249023,"lo1":-89.0895004272461,"lo2":-89.04439544677734,"nx":28,"ny":28,"refTime":"2022-10-03T21:00:00:Z","depth":"0","parameterNumber":2,"parameterNumberName":"U-component_of_CURRENTS"},"data":[-0.5005,-0.506,-0.5162,-0.456,-0.446,-0.3975,-0.3738,-0.3505,-0.3232,-0.2522,-0.2082,-0.1889,-0.2157,-0.2445,-0.2329,-0.2209,-0.2399,-0.2121,-0.2371,-0.2955,-0.3086,-0.321,-0.3083,-0.1989,-0.199,-0.1886,-0.1886,-0.1885,-0.5191,-0.5344,-0.5466,-0.5501,-0.5275,-0.5529,-0.5387,-0.5111,-0.4553,-0.4254,-0.3803,-0.3287,-0.2908,-0.2916,-0.2746,-0.2559,-0.2736,-0.2588,-0.2972,-0.2999,-0.3411,-0.3245,-0.2168,-0.2168,-0.2168,-0.2169,-0.2169,-0.2169,-0.5585,-0.5693,-0.5896,-0.6025,-0.6151,-0.6,-0.5862,-0.5903,-0.5701,-0.5239,-0.5315,-0.4664,-0.4516,-0.4015,-0.3872,-0.3616,-0.3989,-0.3666,-0.3856,-0.403,-0.3779,-0.4146,-0.3287,-0.3292,-0.3296,-0.33,-0.3303,0,-0.5919,-0.6047,-0.6217,-0.6402,-0.6547,-0.6664,-0.6783,-0.6744,-0.6881,-0.6795,-0.6348,-0.6037,-0.5664,-0.5182,-0.4894,-0.4774,-0.5315,-0.5116,-0.5216,-0.4948,-0.4982,-0.4866,-0.5698,-0.5074,-0.5089,-0.5101,-0.5109,-0.5115,-0.6294,-0.6294,-0.6627,-0.6726,-0.6824,-0.7005,-0.7119,-0.7412,-0.7411,-0.7363,-0.7259,-0.7088,-0.6761,-0.6396,-0.6219,-0.5984,-0.6188,-0.5503,-0.5663,-0.5631,-0.5731,-0.5887,-0.5834,-0.528,-0.5259,-0.5242,-0.5228,0,-0.6466,-0.6632,-0.6739,-0.6999,-0.7093,-0.7176,-0.7474,-0.7527,-0.7685,-0.7637,-0.7658,-0.7782,-0.7562,-0.7682,-0.7507,-0.7437,-0.6967,-0.6923,-0.6624,-0.6479,-0.5866,-0.6008,-0.5503,-0.5366,-0.6247,-0.6229,-0.6215,0,-0.6744,-0.678,-0.7017,-0.7054,-0.7188,-0.7409,-0.7524,-0.7674,-0.7826,-0.7845,-0.811,-0.803,-0.8287,-0.8166,-0.8151,-0.7743,-0.7995,-0.7513,-0.7411,-0.7199,-0.7129,-0.6906,-0.7014,-0.8081,-0.8083,-0.8084,-0.8086,0,-0.6867,-0.7039,-0.7112,-0.718,-0.7457,-0.7511,-0.7676,-0.7873,-0.802,-0.8136,-0.8172,-0.8366,-0.8393,-0.8369,-0.8293,-0.8422,-0.8087,-0.8262,-0.761,-0.7572,-0.7057,-0.6968,-0.6844,-0.8088,-0.8089,-0.8089,-0.809,0,-0.705,-0.7139,-0.7218,-0.7452,-0.7484,-0.7592,-0.7755,-0.7947,-0.8137,-0.8267,-0.8423,-0.8507,-0.8619,-0.8662,-0.8622,-0.8672,-0.8532,-0.846,-0.8449,-0.7666,-0.7605,-0.7074,-0.698,-0.6978,-0.8321,-0.8323,-0.8325,0,-0.7127,-0.721,-0.7337,-0.7459,-0.751,-0.7682,-0.7837,-0.8054,-0.8222,-0.8345,-0.8552,-0.8627,-0.8776,-0.8764,-0.8811,-0.865,-0.862,-0.8736,-0.8272,-0.8256,-0.7681,-0.7696,-0.7359,-0.7066,-0.8358,-0.8355,-0.8352,0,-0.7166,-0.7348,-0.7328,-0.7384,-0.7565,-0.7685,-0.7845,-0.8044,-0.8097,-0.8419,-0.8492,-0.8686,-0.8725,-0.8684,-0.8684,-0.8668,-0.8674,-0.8513,-0.8499,-0.8398,-0.8427,-0.7821,-0.7741,-0.8619,-0.8616,-0.8613,-0.8379,0,-0.7243,-0.7321,-0.7349,-0.7424,-0.756,-0.7662,-0.7847,-0.7985,-0.8128,-0.8287,-0.8438,-0.8499,-0.8488,-0.8578,-0.8504,-0.8527,-0.8404,-0.8349,-0.8164,-0.8341,-0.8222,-0.8204,-0.8306,-0.8298,-0.8292,-0.8287,0,0,-0.7177,-0.7273,-0.7373,-0.7417,-0.7495,-0.7632,-0.7701,-0.7866,-0.8046,-0.8106,-0.8144,-0.8209,-0.8166,-0.8202,-0.8302,-0.8305,-0.8168,-0.8178,-0.8293,-0.8296,-0.8297,-0.8192,-0.8182,-0.8275,-0.8273,-0.8271,-0.8268,0,-0.7157,-0.727,-0.7309,-0.7408,-0.7534,-0.7631,-0.7665,-0.7833,-0.793,-0.8089,-0.7993,-0.8044,-0.8045,-0.8025,-0.7994,-0.8218,-0.796,-0.8213,-0.8334,-0.8246,-0.8258,-0.8266,-0.8168,-0.8163,-0.8253,-0.8254,-0.8254,0,-0.7091,-0.7164,-0.7222,-0.7407,-0.7472,-0.7566,-0.7586,-0.7727,-0.7844,-0.7708,-0.7822,-0.7794,-0.7686,-0.7774,-0.7775,-0.7694,-0.7758,-0.7787,-0.7818,-0.7683,-0.7572,-0.759,-0.7606,-0.7387,-0.7386,-0.7384,0,0,-0.7041,-0.7125,-0.7265,-0.7401,-0.7433,-0.7549,-0.7639,-0.7701,-0.7747,-0.7767,-0.7735,-0.7671,-0.7644,-0.7623,-0.7575,-0.7644,-0.7462,-0.7695,-0.7735,-0.777,-0.7659,-0.7557,-0.7575,-0.7378,-0.7378,-0.7378,0,0,-0.7012,-0.7126,-0.7144,-0.7306,-0.744,-0.7587,-0.766,-0.7713,-0.776,-0.7713,-0.7597,-0.7566,-0.7588,-0.7487,-0.7428,-0.7538,-0.7353,-0.7362,-0.7648,-0.7695,-0.7735,-0.7615,-0.7237,0,0,0,0,0,-0.699,-0.7109,-0.7124,-0.7164,-0.7399,-0.7586,-0.7625,-0.7689,-0.7639,-0.7726,-0.7666,-0.7518,-0.7456,-0.7401,-0.7377,-0.7484,-0.73,-0.7314,-0.7327,-0.7704,-0.7757,-0.7801,0,0,0,0,0,0,-0.7006,-0.705,-0.7122,-0.7263,-0.7318,-0.7581,-0.7509,-0.7532,-0.763,-0.7626,-0.7549,-0.7516,-0.7427,-0.74,-0.7381,-0.7488,-0.7243,-0.7306,-0.7317,-0.7328,-0.7722,-0.7765,-0.7802,0,0,0,0,0,-0.7019,-0.7055,-0.7396,-0.7265,-0.7313,-0.7435,-0.7502,-0.7521,-0.7601,-0.7508,-0.7486,-0.7637,-0.7434,-0.7405,-0.7388,-0.7502,-0.7255,-0.7248,-0.7313,-0.7323,-0.7331,-0.7743,0,0,0,0,0,0,-0.7029,-0.7095,-0.741,-0.743,-0.7198,-0.7423,-0.7453,-0.7511,-0.747,-0.7463,-0.7581,-0.7575,-0.744,-0.7416,-0.7395,-0.7519,-0.7264,-0.7258,-0.7254,-0.732,-0.7328,-0.7334,0,0,0,0,0,0,-0.7076,-0.711,-0.742,-0.7331,-0.7342,-0.7412,-0.7438,-0.7388,-0.7455,-0.754,-0.7541,-0.7576,-0.7337,-0.7425,-0.7408,-0.7343,-0.7272,-0.7266,-0.7261,-0.7259,-0.7326,-0.7332,0,0,0,0,0,0,-0.7093,-0.7123,-0.7326,-0.7334,-0.7344,-0.7578,-0.7355,-0.751,-0.7641,-0.7531,-0.7625,-0.7618,-0.7338,-0.7328,-0.7417,-0.7362,-0.7348,-0.7272,-0.7267,-0.7264,-0.7262,0,0,0,0,0,0,0,-0.7108,-0.6872,-0.7286,-0.7338,-0.7345,-0.7616,-0.7622,-0.7628,-0.764,-0.7633,-0.7627,-0.7621,-0.7307,-0.73,-0.7293,-0.7377,0,0,-0.7272,-0.7269,0,0,0,0,0,0,0,0,-0.6863,-0.687,-0.7287,-0.7291,-0.7295,-0.7617,-0.7622,-0.7626,-0.7638,-0.7633,-0.7628,-0.7623,-0.7305,-0.73,-0.7294,0,0,0,0,0,0,0,0,0,0,0,0,0,0,0,-0.7287,-0.729,0,-0.7617,-0.7621,-0.7625,-0.7638,-0.7633,-0.7629,-0.7625,-0.7304,-0.7299,-0.7295,0,0,0,0,0,0,0,0,0,0,0,0,0,0,0,0,0,0,0,0,0,0,0,0,0,0,0,0,0,0,0,0,0,0,0,0,0,0,0,0,0,0,0,0,0,0,0,0,0,0,0,0,0,0,0,0,0,0,0,0,0,0,0,0,0,0,0,0,0]}],[{"header":{"parameterUnit":"kt","parameterCategory":2,"dx":1,"dy":1,"la1":30.253999710083008,"la2":30.299108505249023,"lo1":-89.0895004272461,"lo2":-89.04439544677734,"nx":28,"ny":28,"refTime":"2022-10-03T21:00:00:Z","depth":"0","parameterNumber":3,"parameterNumberName":"V-component_of_CURRENTS"},"data":[-0.2307,-0.2186,-0.205,-0.1356,-0.1132,-0.0609,-0.0331,-0.0019,0.0231,0.084,0.124,0.1473,0.1738,0.2353,0.277,0.2797,0.3044,0.2998,0.3161,0.2721,0.2662,0.2606,0.2685,0.3169,0.317,0.3724,0.3729,0.3734,-0.2359,-0.234,-0.2272,-0.2018,-0.1664,-0.1705,-0.1373,-0.106,-0.0482,-0.0248,0.0237,0.0822,0.1274,0.1509,0.1924,0.2195,0.2222,0.2308,0.2346,0.242,0.1817,0.1873,0.2193,0.2192,0.2192,0.2192,0.2192,0.2191,-0.2424,-0.2487,-0.2443,-0.2316,-0.2228,-0.1938,-0.1755,-0.1524,-0.1203,-0.0672,-0.0608,-0.0072,0.0231,0.0865,0.1108,0.1505,0.1429,0.1641,0.1713,0.1726,0.1915,0.1262,0.145,0.145,0.1449,0.1449,0.1448,0,-0.2383,-0.241,-0.2442,-0.2391,-0.2343,-0.2267,-0.2122,-0.2057,-0.1776,-0.1588,-0.1107,-0.0831,-0.0359,0.0201,0.0616,0.0846,0.1073,0.099,0.1222,0.1447,0.1525,0.1692,0.0945,0.1037,0.1033,0.1031,0.1029,0.1028,-0.2282,-0.2322,-0.235,-0.2331,-0.2288,-0.2303,-0.2218,-0.2111,-0.1933,-0.1656,-0.1483,-0.1158,-0.0728,-0.0186,0.0244,0.0632,0.0835,0.0902,0.0946,0.1194,0.1328,0.137,0.148,0.0995,0.0999,0.1003,0.1005,0,-0.2235,-0.2168,-0.2197,-0.2127,-0.212,-0.2154,-0.203,-0.1946,-0.1837,-0.1638,-0.1584,-0.1192,-0.0812,-0.0478,-0.0085,0.0158,0.0617,0.0607,0.0633,0.0695,0.1155,0.124,0.1476,0.1626,0.085,0.0854,0.0858,0,-0.2068,-0.2075,-0.1987,-0.1987,-0.2033,-0.1844,-0.1837,-0.1713,-0.1538,-0.1384,-0.1174,-0.0992,-0.0654,-0.0392,-0.0121,0.0258,0.0165,0.0552,0.0609,0.0633,0.065,0.0904,0.0999,0.0421,0.0421,0.042,0.042,0,-0.1961,-0.1852,-0.1868,-0.1811,-0.1634,-0.1616,-0.152,-0.1307,-0.1216,-0.1037,-0.0975,-0.0753,-0.0599,-0.0414,-0.0001,-0.0001,0.0264,0.0295,0.0573,0.0584,0.067,0.0692,0.0901,0.0419,0.0419,0.0419,0.0419,0,-0.175,-0.1722,-0.1691,-0.1593,-0.1554,-0.146,-0.1325,-0.1177,-0.0944,-0.0824,-0.068,-0.0495,-0.0302,-0.0154,0.0098,0.0062,0.0231,0.0379,0.0384,0.0563,0.0652,0.0735,0.0724,0.0964,0.0476,0.0476,0.0476,0,-0.1712,-0.1652,-0.1503,-0.1427,-0.1382,-0.1164,-0.1037,-0.0851,-0.0666,-0.0527,-0.0319,-0.0187,0.0003,0.0046,0.0159,0.0339,0.0404,0.0394,0.0499,0.0502,0.0635,0.0606,0.0651,0.0715,0.0476,0.0476,0.0476,0,-0.1658,-0.1469,-0.1458,-0.1423,-0.1157,-0.106,-0.0899,-0.0702,-0.0655,-0.038,-0.0311,-0.0025,0.005,0.0154,0.0301,0.0386,0.0414,0.0454,0.0458,0.0471,0.0439,0.0589,0.0603,0.0422,0.0422,0.0421,0.0476,0,-0.1499,-0.1445,-0.1415,-0.1238,-0.1104,-0.1013,-0.0764,-0.0634,-0.0479,-0.0301,-0.0162,0.0077,0.0233,0.0323,0.0456,0.0499,0.0506,0.0547,0.0612,0.0556,0.0591,0.059,0.063,0.0632,0.0634,0.0636,0,0,-0.1493,-0.1423,-0.1261,-0.1171,-0.1078,-0.0843,-0.0771,-0.0572,-0.0275,-0.0217,-0.0134,0.0165,0.035,0.0469,0.0498,0.0584,0.0585,0.0614,0.0586,0.0579,0.0574,0.0603,0.0601,0.0639,0.064,0.064,0.0641,0,-0.1421,-0.134,-0.1312,-0.116,-0.0961,-0.0788,-0.0766,-0.0482,-0.0354,-0.0157,-0.0036,0.0087,0.0361,0.0488,0.0581,0.0599,0.0676,0.0625,0.0574,0.06,0.0592,0.0585,0.0611,0.0607,0.0645,0.0645,0.0645,0,-0.1356,-0.1245,-0.1221,-0.1011,-0.0849,-0.0711,-0.0573,-0.0429,-0.0306,-0.0117,0.0086,0.0203,0.0381,0.0524,0.059,0.0629,0.0751,0.0759,0.0751,0.0739,0.0769,0.0759,0.075,0.0865,0.0865,0.0865,0,0,-0.1302,-0.1259,-0.1029,-0.098,-0.0903,-0.0644,-0.0529,-0.0403,-0.0209,-0.0121,0.0073,0.0229,0.0362,0.0459,0.0598,0.0743,0.0778,0.0782,0.0771,0.0763,0.0745,0.0773,0.0763,0.0867,0.0867,0.0867,0,0,-0.1256,-0.1067,-0.1006,-0.0947,-0.0749,-0.0449,-0.0376,-0.0245,-0.0052,-0.007,0.0149,0.0199,0.032,0.0439,0.043,0.0633,0.0677,0.0685,0.0574,0.0564,0.0554,0.0497,0.0568,0,0,0,0,0,-0.1103,-0.1103,-0.1051,-0.1016,-0.072,-0.049,-0.0431,-0.0232,-0.0194,-0.012,0.0027,0.0128,0.0464,0.0461,0.0515,0.0547,0.0881,0.0878,0.0876,0.0765,0.0752,0.0741,0,0,0,0,0,0,-0.1088,-0.105,-0.1049,-0.0778,-0.0707,-0.0489,-0.0394,-0.0333,-0.0197,-0.0177,0.0099,0.0137,0.0283,0.0446,0.0492,0.0518,0.0553,0.088,0.0878,0.0876,0.0761,0.075,0.0741,0,0,0,0,0,-0.1075,-0.1043,-0.066,-0.0769,-0.0708,-0.0438,-0.0396,-0.0344,-0.0211,0.002,0.0066,-0.0081,0.0281,0.0329,0.0474,0.0493,0.0523,0.0539,0.0878,0.0877,0.0875,0.0756,0,0,0,0,0,0,-0.1064,-0.0929,-0.0638,-0.0606,-0.0805,-0.0441,-0.0391,-0.0355,-0.0018,0.0028,-0.0155,-0.0145,0.0281,0.0318,0.0354,0.0474,0.0498,0.0515,0.0525,0.0877,0.0876,0.0875,0,0,0,0,0,0,-0.0945,-0.0906,-0.062,-0.0678,-0.065,-0.0446,-0.0403,-0.0231,-0.002,-0.0208,-0.019,-0.0156,0.0175,0.031,0.0339,0.0608,0.0479,0.0495,0.0506,0.0513,0.0876,0.0875,0,0,0,0,0,0,-0.0921,-0.0886,-0.0683,-0.0662,-0.0637,-0.0245,-0.0287,-0.0017,-0.001,-0.0226,-0.0014,-0.0016,0.016,0.0197,0.0328,0.0585,0.0602,0.048,0.0491,0.0498,0.0503,0,0,0,0,0,0,0,-0.0902,-0.1226,-0.0852,-0.0648,-0.0626,-0.0314,-0.0303,-0.0292,-0.0011,-0.0012,-0.0014,-0.0015,0.0388,0.0406,0.0423,0.0566,0,0,0.0478,0.0486,0,0,0,0,0,0,0,0,-0.1232,-0.1227,-0.0852,-0.0846,-0.0841,-0.0313,-0.0304,-0.0295,-0.0011,-0.0012,-0.0013,-0.0015,0.0393,0.0407,0.0422,0,0,0,0,0,0,0,0,0,0,0,0,0,0,0,-0.0851,-0.0847,0,-0.0311,-0.0304,-0.0296,-0.0011,-0.0012,-0.0013,-0.0014,0.0397,0.0409,0.042,0,0,0,0,0,0,0,0,0,0,0,0,0,0,0,0,0,0,0,0,0,0,0,0,0,0,0,0,0,0,0,0,0,0,0,0,0,0,0,0,0,0,0,0,0,0,0,0,0,0,0,0,0,0,0,0,0,0,0,0,0,0,0,0,0,0,0,0,0]}]],[[{"header":{"parameterUnit":"kt","parameterCategory":2,"dx":1,"dy":1,"la1":30.253999710083008,"la2":30.299108505249023,"lo1":-89.0895004272461,"lo2":-89.04439544677734,"nx":28,"ny":28,"refTime":"2022-10-03T21:00:00:Z","depth":"2","parameterNumber":2,"parameterNumberName":"U-component_of_CURRENTS"},"data":[-0.3634,-0.336,-0.322,-0.2773,-0.2725,-0.245,-0.2363,-0.2263,-0.2166,-0.1966,-0.1891,-0.2102,-0.2184,-0.1747,-0.1649,-0.143,-0.1779,-0.1352,-0.221,-0.2444,-0.2522,-0.2794,-0.2563,0,0,0,0,0,-0.3821,-0.3725,-0.3658,-0.3508,-0.3347,-0.3483,-0.34,-0.3258,-0.3026,-0.3037,-0.2909,-0.2609,-0.2336,-0.2359,-0.2053,-0.199,-0.2076,-0.1934,-0.2066,-0.2156,-0.2237,-0.2027,-0.1351,-0.1348,-0.1346,-0.1343,0,0,-0.4085,-0.4062,-0.4018,-0.3949,-0.3989,-0.3863,-0.3803,-0.3784,-0.3734,-0.3647,-0.382,-0.3612,-0.362,-0.3067,-0.288,-0.281,-0.3035,-0.2959,-0.3,-0.305,-0.2872,-0.2734,-0.2423,-0.2428,-0.2432,-0.2435,-0.2438,0,-0.4153,-0.4204,-0.4263,-0.4239,-0.4286,-0.4329,-0.4337,-0.4389,-0.4512,-0.4574,-0.4462,-0.4385,-0.4238,-0.3828,-0.3681,-0.3509,-0.384,-0.3609,-0.4361,-0.3516,-0.3395,-0.3433,-0.3473,-0.3239,-0.3249,-0.3255,-0.3261,-0.3264,-0.4214,-0.4232,-0.4396,-0.4402,-0.4476,-0.4567,-0.4608,-0.4826,-0.48,-0.4983,-0.4921,-0.4981,-0.4775,-0.4625,-0.4423,-0.4207,-0.44,-0.3848,-0.3683,-0.424,-0.4275,-0.4285,-0.4293,-0.3366,-0.3353,-0.3342,-0.3334,0,-0.4251,-0.433,-0.4395,-0.4548,-0.4592,-0.4645,-0.4775,-0.483,-0.5013,-0.5063,-0.5118,-0.5248,-0.5102,-0.5072,-0.5018,-0.4857,-0.4704,-0.459,-0.4227,-0.4192,-0.4349,-0.4345,-0.4249,-0.4238,-0.4229,-0.4221,-0.4214,0,-0.4367,-0.4383,-0.4511,-0.4555,-0.4634,-0.4671,-0.4756,-0.4882,-0.5022,-0.5038,-0.5163,-0.5145,-0.5176,-0.5135,-0.5008,-0.4752,-0.4961,-0.4523,-0.4544,-0.4274,-0.4225,-0.4888,-0.4889,-0.4877,-0.4876,-0.4876,-0.4875,0,-0.4444,-0.4494,-0.4516,-0.4552,-0.4661,-0.4703,-0.4748,-0.4851,-0.49,-0.506,-0.5131,-0.5104,-0.5114,-0.505,-0.4904,-0.4896,-0.4873,-0.4904,-0.459,-0.4573,-0.4324,-0.4277,-0.4875,-0.4875,-0.4874,-0.4874,-0.4874,0,-0.4538,-0.4599,-0.4596,-0.4675,-0.4679,-0.4697,-0.481,-0.4814,-0.4926,-0.4956,-0.4954,-0.4949,-0.4903,-0.4801,-0.4755,-0.476,-0.4739,-0.4722,-0.4729,-0.4466,-0.4516,-0.4319,-0.4097,-0.4824,-0.4823,-0.4823,-0.4822,0,-0.4658,-0.4672,-0.4683,-0.4677,-0.4678,-0.4774,-0.4766,-0.4819,-0.4822,-0.4815,-0.48,-0.4799,-0.4648,-0.4684,-0.4628,-0.468,-0.4656,-0.4616,-0.4818,-0.4822,-0.4605,-0.4444,-0.4105,-0.4113,-0.4813,-0.4814,-0.4815,0,-0.4716,-0.4764,-0.4755,-0.4778,-0.4824,-0.4816,-0.4821,-0.4832,-0.4896,-0.4724,-0.4726,-0.4646,-0.4606,-0.4657,-0.4664,-0.465,-0.4642,-0.4697,-0.4702,-0.4783,-0.4787,-0.4474,-0.4451,-0.4731,-0.4732,-0.4732,-0.4808,0,-0.4807,-0.4819,-0.4807,-0.4815,-0.4809,-0.4839,-0.4846,-0.4809,-0.4768,-0.4698,-0.4695,-0.4661,-0.467,-0.4619,-0.4686,-0.4677,-0.4727,-0.4777,-0.4887,-0.4791,-0.4828,-0.4833,-0.4798,-0.4799,-0.4801,-0.4802,0,0,-0.4872,-0.4853,-0.4873,-0.4869,-0.4899,-0.4956,-0.4933,-0.4855,-0.4784,-0.4781,-0.4791,-0.4694,-0.4769,-0.4861,-0.4789,-0.4792,-0.4853,-0.4852,-0.4801,-0.48,-0.48,-0.4834,-0.4837,-0.4804,-0.4805,-0.4805,-0.4806,0,-0.4868,-0.4913,-0.4888,-0.4902,-0.4963,-0.4905,-0.4966,-0.4825,-0.4795,-0.4748,-0.481,-0.4855,-0.4844,-0.4888,-0.4951,-0.4823,-0.4941,-0.4804,-0.4748,-0.4811,-0.4809,-0.4807,-0.4839,-0.4841,-0.4809,-0.4809,-0.4809,0,-0.4914,-0.4951,-0.4955,-0.4966,-0.4894,-0.4863,-0.4881,-0.4896,-0.4874,-0.4979,-0.4862,-0.4906,-0.5022,-0.5012,-0.5059,-0.5104,-0.5044,-0.5037,-0.5027,-0.5029,-0.51,-0.5094,-0.5089,-0.5178,-0.5179,-0.5181,0,0,-0.4925,-0.4933,-0.4963,-0.4971,-0.4973,-0.4873,-0.4841,-0.4885,-0.4901,-0.4903,-0.4902,-0.4959,-0.5041,-0.5142,-0.515,-0.513,-0.5186,-0.5085,-0.5068,-0.5054,-0.5048,-0.5114,-0.5106,-0.5186,-0.5186,-0.5187,0,0,-0.4922,-0.4971,-0.4997,-0.5017,-0.5013,-0.4858,-0.4828,-0.4822,-0.481,-0.4893,-0.4992,-0.5052,-0.517,-0.52,-0.5267,-0.5181,-0.5244,-0.5233,-0.52,-0.5179,-0.5162,-0.5161,-0.5376,0,0,0,0,0,-0.4957,-0.4963,-0.4986,-0.5001,-0.4871,-0.4809,-0.4766,-0.4799,-0.4825,-0.4808,-0.4915,-0.5027,-0.5238,-0.5301,-0.5313,-0.5269,-0.526,-0.5247,-0.5235,-0.5184,-0.5161,-0.5142,0,0,0,0,0,0,-0.4963,-0.4971,-0.4989,-0.4857,-0.4837,-0.4799,-0.483,-0.4815,-0.484,-0.4865,-0.4963,-0.5021,-0.5092,-0.53,-0.531,-0.5266,-0.5373,-0.5255,-0.5244,-0.5234,-0.5176,-0.5158,-0.5141,0,0,0,0,0,-0.4968,-0.4976,-0.4838,-0.4845,-0.4826,-0.486,-0.484,-0.4832,-0.4785,-0.4953,-0.4997,-0.4885,-0.5073,-0.5113,-0.5307,-0.5259,-0.5366,-0.537,-0.5248,-0.5239,-0.5231,-0.5167,0,0,0,0,0,0,-0.4972,-0.4753,-0.4824,-0.4812,-0.5047,-0.4864,-0.4854,-0.4846,-0.4875,-0.4914,-0.4884,-0.4906,-0.5057,-0.5091,-0.5119,-0.5251,-0.5361,-0.5365,-0.5367,-0.5241,-0.5234,-0.5228,0,0,0,0,0,0,-0.4758,-0.474,-0.4813,-0.5065,-0.5076,-0.4869,-0.4864,-0.4851,-0.4893,-0.4789,-0.4813,-0.49,-0.5299,-0.5073,-0.5097,-0.5039,-0.5357,-0.536,-0.5363,-0.5364,-0.5236,-0.523,0,0,0,0,0,0,-0.4746,-0.473,-0.5061,-0.507,-0.5079,-0.4862,-0.4867,-0.4856,-0.4745,-0.4791,-0.4794,-0.4816,-0.5297,-0.5304,-0.5078,-0.5007,-0.5031,-0.5357,-0.5359,-0.5361,-0.5362,0,0,0,0,0,0,0,-0.4736,-0.4901,-0.5012,-0.5073,-0.5082,-0.4716,-0.4702,-0.4687,-0.475,-0.477,-0.4789,-0.4807,-0.5338,-0.5341,-0.5345,-0.4982,0,0,-0.5357,-0.5358,0,0,0,0,0,0,0,0,-0.4901,-0.4901,-0.5013,-0.5016,-0.502,-0.4714,-0.4702,-0.469,-0.4754,-0.4769,-0.4785,-0.48,-0.5339,-0.5342,-0.5345,0,0,0,0,0,0,0,0,0,0,0,0,0,0,0,-0.5013,-0.5016,0,-0.4713,-0.4703,-0.4693,-0.4756,-0.4769,-0.4782,-0.4794,-0.534,-0.5342,-0.5345,0,0,0,0,0,0,0,0,0,0,0,0,0,0,0,0,0,0,0,0,0,0,0,0,0,0,0,0,0,0,0,0,0,0,0,0,0,0,0,0,0,0,0,0,0,0,0,0,0,0,0,0,0,0,0,0,0,0,0,0,0,0,0,0,0,0,0,0,0]}],[{"header":{"parameterUnit":"kt","parameterCategory":2,"dx":1,"dy":1,"la1":30.253999710083008,"la2":30.299108505249023,"lo1":-89.0895004272461,"lo2":-89.04439544677734,"nx":28,"ny":28,"refTime":"2022-10-03T21:00:00:Z","depth":"2","parameterNumber":3,"parameterNumberName":"V-component_of_CURRENTS"},"data":[-0.2174,-0.2341,-0.2405,-0.2573,-0.2636,-0.2642,-0.26,-0.2449,-0.2178,-0.1845,-0.1494,-0.1041,-0.0302,0.0095,0.0542,0.0855,0.0844,0.0853,0.0785,0.0668,0.066,0.095,0.0837,0,0,0,0,0,-0.2095,-0.2177,-0.2313,-0.2431,-0.2507,-0.25,-0.2461,-0.2363,-0.2233,-0.1903,-0.1595,-0.0973,-0.0391,0.0186,0.0758,0.108,0.1065,0.1096,0.1045,0.1039,0.1034,0.0968,0.109,0.1091,0.1092,0.1093,0,0,-0.1938,-0.2031,-0.2127,-0.2242,-0.2306,-0.235,-0.2343,-0.2268,-0.2173,-0.1875,-0.1567,-0.1114,-0.0532,0.0207,0.0606,0.0943,0.093,0.1009,0.1005,0.1001,0.0936,0.0823,0.1047,0.1048,0.1048,0.1048,0.1048,0,-0.1823,-0.1842,-0.1909,-0.2041,-0.2087,-0.2122,-0.2102,-0.2083,-0.1862,-0.1729,-0.143,-0.1171,-0.0527,-0.0023,0.0489,0.0718,0.0828,0.0928,0.0902,0.0833,0.0712,0.0818,0.0805,0.0933,0.0932,0.0932,0.0932,0.0932,-0.1689,-0.1727,-0.1783,-0.1843,-0.1847,-0.1871,-0.1883,-0.1752,-0.1698,-0.1401,-0.1346,-0.0983,-0.069,-0.009,0.0325,0.0734,0.0752,0.091,0.0891,0.0742,0.0855,0.084,0.0825,0.0928,0.0928,0.0929,0.0929,0,-0.1638,-0.161,-0.1658,-0.1648,-0.1652,-0.1689,-0.1634,-0.1614,-0.1474,-0.1361,-0.1314,-0.0977,-0.0619,-0.0287,0.0165,0.0359,0.0675,0.0788,0.0653,0.076,0.0825,0.0812,0.0971,0.0973,0.0974,0.0975,0.0976,0,-0.1538,-0.1552,-0.1536,-0.1556,-0.1598,-0.1495,-0.1487,-0.1413,-0.1284,-0.1206,-0.1,-0.0868,-0.0506,-0.024,0.0005,0.0355,0.0407,0.0577,0.0707,0.0667,0.0664,0.0736,0.074,0.0687,0.0686,0.0684,0.0683,0,-0.149,-0.1453,-0.1475,-0.1456,-0.1393,-0.1378,-0.1331,-0.12,-0.1154,-0.0984,-0.0934,-0.0684,-0.053,-0.0287,0.0029,0.0031,0.0385,0.049,0.0656,0.0659,0.0775,0.0784,0.0681,0.0681,0.0681,0.068,0.068,0,-0.1393,-0.1406,-0.1405,-0.1369,-0.1355,-0.1312,-0.1232,-0.1154,-0.0991,-0.0923,-0.0778,-0.0604,-0.0433,-0.0374,-0.0016,-0.0073,0.0125,0.0288,0.0306,0.0413,0.0595,0.0655,0.065,0.0547,0.0545,0.0544,0.0542,0,-0.1384,-0.138,-0.1321,-0.1291,-0.1286,-0.1181,-0.1122,-0.1016,-0.0919,-0.0848,-0.0643,-0.0464,-0.0373,-0.0275,-0.0186,0.0123,0.0177,0.008,0.0557,0.0568,0.0507,0.0486,0.0457,0.062,0.0519,0.0522,0.0523,0,-0.1369,-0.1315,-0.1313,-0.1301,-0.1191,-0.1157,-0.1071,-0.0968,-0.0932,-0.0823,-0.076,-0.0419,-0.0374,-0.0165,0.0038,0.0109,0.0149,0.0247,0.0263,0.0243,0.0454,0.0456,0.0472,0.0313,0.0315,0.0316,0.0505,0,-0.1312,-0.1301,-0.1298,-0.1231,-0.1179,-0.114,-0.1032,-0.0998,-0.0948,-0.0894,-0.0655,-0.0413,-0.015,-0.0024,0.0129,0.0289,0.0364,0.0504,0.0534,0.0505,0.0601,0.0614,0.0538,0.0543,0.0548,0.0551,0,0,-0.1307,-0.1295,-0.1246,-0.1216,-0.1177,-0.1082,-0.1051,-0.1008,-0.0877,-0.0832,-0.0771,-0.0343,-0.0067,0.0239,0.0234,0.041,0.0511,0.0417,0.054,0.0537,0.0535,0.062,0.0628,0.0559,0.056,0.0562,0.0563,0,-0.1284,-0.127,-0.1265,-0.1209,-0.1125,-0.1097,-0.1054,-0.1024,-0.0978,-0.0834,-0.0639,-0.0424,-0.0025,0.0172,0.0365,0.0445,0.0649,0.06,0.0406,0.0571,0.0562,0.0556,0.0636,0.064,0.0573,0.0573,0.0572,0,-0.1253,-0.1219,-0.1213,-0.1146,-0.1131,-0.1088,-0.1051,-0.1006,-0.0952,-0.0722,-0.0617,-0.0384,-0.0014,0.0221,0.0385,0.0408,0.0708,0.0684,0.0669,0.0619,0.0793,0.0784,0.0776,0.0864,0.0864,0.0863,0,0,-0.1232,-0.1227,-0.1141,-0.1133,-0.1107,-0.1078,-0.1063,-0.1008,-0.0878,-0.0823,-0.0631,-0.0367,-0.0069,0.0109,0.0373,0.0579,0.068,0.0701,0.0688,0.0675,0.0618,0.0788,0.0781,0.086,0.086,0.086,0,0,-0.1211,-0.1147,-0.1117,-0.1114,-0.1035,-0.1026,-0.1029,-0.0992,-0.0857,-0.0823,-0.0549,-0.045,-0.0121,0.0066,-0.0012,0.0411,0.049,0.0512,0.0236,0.0223,0.0211,0.0066,0.0194,0,0,0,0,0,-0.1142,-0.116,-0.1134,-0.1122,-0.1121,-0.1062,-0.1068,-0.1004,-0.0999,-0.0963,-0.0762,-0.0568,0.0076,0.0011,0.0093,0.018,0.0822,0.0829,0.0835,0.0537,0.0521,0.0507,0,0,0,0,0,0,-0.1137,-0.1126,-0.1132,-0.1124,-0.112,-0.1068,-0.1051,-0.1042,-0.0993,-0.0974,-0.0646,-0.0563,-0.0373,-0.0011,0.0059,0.0136,0.0171,0.0825,0.083,0.0836,0.0531,0.0518,0.0506,0,0,0,0,0,-0.1132,-0.1123,-0.111,-0.1127,-0.1124,-0.1047,-0.1045,-0.1036,-0.1013,-0.0696,-0.0626,-0.0933,-0.0388,-0.0297,0.0032,0.0098,0.0125,0.015,0.0828,0.0833,0.0837,0.0525,0,0,0,0,0,0,-0.1129,-0.1194,-0.1112,-0.1111,-0.1036,-0.1044,-0.1037,-0.1031,-0.0729,-0.0673,-0.0964,-0.095,-0.0398,-0.0325,-0.0259,0.007,0.0087,0.0113,0.0129,0.0832,0.0835,0.0839,0,0,0,0,0,0,-0.1195,-0.1195,-0.1113,-0.1002,-0.099,-0.1042,-0.1034,-0.0797,-0.0706,-0.1013,-0.0997,-0.0957,-0.0272,-0.0347,-0.0293,0.0049,0.0059,0.0083,0.01,0.011,0.0835,0.0838,0,0,0,0,0,0,-0.1196,-0.1196,-0.1005,-0.0996,-0.0985,-0.1003,-0.0812,-0.0695,-0.099,-0.1017,-0.0967,-0.0956,-0.0281,-0.0238,-0.0319,-0.0003,0.0036,0.0059,0.0076,0.0088,0.0095,0,0,0,0,0,0,0,-0.1196,-0.1187,-0.1073,-0.099,-0.0981,-0.1099,-0.1103,-0.1107,-0.0988,-0.0978,-0.0969,-0.096,-0.008,-0.0053,-0.0026,-0.0045,0,0,0.0057,0.0069,0,0,0,0,0,0,0,0,-0.1188,-0.1187,-0.1072,-0.107,-0.1068,-0.1099,-0.1103,-0.1106,-0.0986,-0.0979,-0.0971,-0.0964,-0.0073,-0.0051,-0.0029,0,0,0,0,0,0,0,0,0,0,0,0,0,0,0,-0.1072,-0.107,0,-0.11,-0.1102,-0.1105,-0.0985,-0.0979,-0.0973,-0.0967,-0.0067,-0.0049,-0.0031,0,0,0,0,0,0,0,0,0,0,0,0,0,0,0,0,0,0,0,0,0,0,0,0,0,0,0,0,0,0,0,0,0,0,0,0,0,0,0,0,0,0,0,0,0,0,0,0,0,0,0,0,0,0,0,0,0,0,0,0,0,0,0,0,0,0,0,0,0]}]],[[{"header":{"parameterUnit":"kt","parameterCategory":2,"dx":1,"dy":1,"la1":30.253999710083008,"la2":30.299108505249023,"lo1":-89.0895004272461,"lo2":-89.04439544677734,"nx":28,"ny":28,"refTime":"2022-10-03T21:00:00:Z","depth":"4","parameterNumber":2,"parameterNumberName":"U-component_of_CURRENTS"},"data":[-0.2363,-0.2339,-0.2249,-0.2033,-0.1958,-0.1975,-0.2067,-0.2214,-0.2134,-0.2345,-0.2303,-0.2476,-0.2421,-0.2548,-0.237,-0.2386,-0.2409,-0.2573,-0.2566,-0.2715,-0.2739,-0.276,-0.2695,0,0,0,0,0,-0.2482,-0.2354,-0.237,-0.2335,-0.2423,-0.2433,-0.2579,-0.2705,-0.2872,-0.2671,-0.2766,-0.2655,-0.2557,-0.259,-0.2451,-0.2677,-0.2691,-0.2509,-0.2627,-0.273,-0.2756,-0.2684,0,0,0,0,0,0,-0.2592,-0.2585,-0.2636,-0.2656,-0.2747,-0.2692,-0.2826,-0.2781,-0.2826,-0.2947,-0.2876,-0.2893,-0.2972,-0.2845,-0.2798,-0.2725,-0.2676,-0.2604,-0.2635,-0.2661,-0.258,-0.2479,-0.2268,0,0,0,0,0,-0.2636,-0.2738,-0.2818,-0.2875,-0.2955,-0.3031,-0.3104,-0.3109,-0.3225,-0.34,-0.323,-0.3171,-0.3056,-0.2978,-0.2935,-0.2868,-0.3069,-0.2968,-0.2981,-0.295,-0.29,-0.2848,-0.2855,-0.2855,-0.2858,-0.286,-0.2861,0,-0.2688,-0.2753,-0.2963,-0.3006,-0.3093,-0.3243,-0.3295,-0.3466,-0.3466,-0.3554,-0.3486,-0.3483,-0.3451,-0.318,-0.321,-0.3117,-0.3075,-0.3037,-0.3005,-0.2942,-0.2883,-0.2884,-0.2883,-0.2882,-0.2881,-0.2879,-0.2877,0,-0.2721,-0.2821,-0.2946,-0.3131,-0.3188,-0.3287,-0.3439,-0.3489,-0.3623,-0.3628,-0.3652,-0.3668,-0.3571,-0.3551,-0.3479,-0.3352,-0.325,-0.3171,-0.3379,-0.3325,-0.2926,-0.2917,-0.2917,-0.2909,-0.2903,-0.2897,-0.2893,0,-0.2775,-0.2865,-0.3025,-0.3071,-0.3204,-0.33,-0.3433,-0.3516,-0.3612,-0.3619,-0.3705,-0.3664,-0.3656,-0.3603,-0.3535,-0.3341,-0.3476,-0.3178,-0.3116,-0.3315,-0.3305,-0.3294,-0.328,-0.3414,-0.3414,-0.3414,-0.3415,0,-0.2814,-0.2917,-0.3012,-0.3045,-0.3176,-0.3268,-0.3343,-0.3451,-0.3492,-0.36,-0.3612,-0.3656,-0.3608,-0.3605,-0.3461,-0.3448,-0.3415,-0.3368,-0.3138,-0.312,-0.3289,-0.3275,-0.3415,-0.3415,-0.3415,-0.3415,-0.3415,0,-0.2838,-0.2891,-0.2977,-0.3109,-0.3135,-0.3187,-0.3336,-0.3372,-0.3455,-0.3466,-0.3512,-0.3472,-0.3496,-0.3404,-0.3388,-0.3372,-0.3323,-0.3263,-0.3261,-0.3046,-0.2919,-0.3081,-0.3163,-0.3161,-0.316,-0.3159,-0.3157,0,-0.2884,-0.2923,-0.2937,-0.302,-0.3057,-0.3111,-0.3164,-0.3218,-0.3233,-0.3274,-0.3258,-0.3266,-0.3196,-0.32,-0.3217,-0.3148,-0.3183,-0.3146,-0.3121,-0.3121,-0.2937,-0.2969,-0.3149,-0.3138,-0.314,-0.3142,-0.3143,0,-0.2878,-0.2919,-0.2929,-0.2984,-0.3002,-0.3002,-0.3065,-0.3106,-0.3178,-0.3119,-0.3184,-0.3135,-0.3123,-0.3116,-0.3075,-0.3094,-0.3141,-0.3045,-0.3044,-0.3058,-0.3193,-0.297,-0.2959,-0.3133,-0.3136,-0.3139,-0.3129,0,-0.2902,-0.2937,-0.2935,-0.2951,-0.2954,-0.296,-0.2957,-0.2977,-0.2982,-0.2963,-0.2996,-0.2918,-0.293,-0.2902,-0.2865,-0.2951,-0.292,-0.2887,-0.2888,-0.294,-0.2917,-0.2929,-0.2774,-0.2772,-0.2771,-0.277,0,0,-0.293,-0.292,-0.2896,-0.2891,-0.2908,-0.2894,-0.2913,-0.2886,-0.284,-0.2873,-0.2829,-0.2807,-0.2771,-0.2827,-0.2829,-0.2778,-0.2784,-0.2831,-0.2891,-0.2904,-0.2917,-0.2901,-0.2914,-0.2767,-0.2767,-0.2767,-0.2766,0,-0.2898,-0.291,-0.2911,-0.2892,-0.2883,-0.2857,-0.2874,-0.282,-0.2826,-0.2797,-0.2797,-0.28,-0.274,-0.275,-0.2744,-0.2756,-0.2761,-0.2748,-0.285,-0.2878,-0.2893,-0.2906,-0.2894,-0.2906,-0.2763,-0.2763,-0.2763,0,-0.2899,-0.2881,-0.2888,-0.2847,-0.2829,-0.282,-0.2794,-0.2783,-0.2793,-0.2746,-0.276,-0.2729,-0.2701,-0.2696,-0.2704,-0.2698,-0.2742,-0.2706,-0.2711,-0.276,-0.2788,-0.2805,-0.2819,-0.2641,-0.2641,-0.2641,0,0,-0.2885,-0.2883,-0.2845,-0.2841,-0.2837,-0.2796,-0.2775,-0.2773,-0.2743,-0.2741,-0.2723,-0.2719,-0.2705,-0.2716,-0.2682,-0.2671,-0.2676,-0.2696,-0.2701,-0.2706,-0.2757,-0.2787,-0.2801,-0.2641,-0.2641,-0.2641,0,0,-0.2869,-0.2844,-0.2869,-0.2854,-0.2821,-0.2737,-0.2733,-0.2725,-0.2704,-0.2746,-0.272,-0.272,-0.2734,-0.2708,-0.271,-0.2713,-0.2683,-0.2681,-0.2751,-0.2757,-0.2763,-0.2835,-0.2712,0,0,0,0,0,-0.2856,-0.2845,-0.2868,-0.2865,-0.28,-0.2727,-0.2712,-0.2704,-0.2743,-0.273,-0.2731,-0.2742,-0.2706,-0.2706,-0.2697,-0.2739,-0.2642,-0.2642,-0.2642,-0.2727,-0.2734,-0.274,0,0,0,0,0,0,-0.2854,-0.2849,-0.2867,-0.2791,-0.2777,-0.2727,-0.2745,-0.2738,-0.2745,-0.2753,-0.2735,-0.2739,-0.2716,-0.2711,-0.2702,-0.2744,-0.2715,-0.2642,-0.2642,-0.2642,-0.2729,-0.2735,-0.274,0,0,0,0,0,-0.2852,-0.2848,-0.2771,-0.2788,-0.2775,-0.2754,-0.2748,-0.2744,-0.2749,-0.2718,-0.2722,-0.2761,-0.2712,-0.271,-0.2706,-0.2749,-0.2721,-0.2718,-0.2642,-0.2642,-0.2642,-0.2732,0,0,0,0,0,0,-0.2851,-0.2805,-0.2765,-0.2758,-0.2837,-0.2757,-0.2751,-0.2748,-0.2716,-0.2718,-0.274,-0.2746,-0.2709,-0.2707,-0.2705,-0.2754,-0.2726,-0.2722,-0.272,-0.2642,-0.2642,-0.2642,0,0,0,0,0,0,-0.2807,-0.2799,-0.2761,-0.2824,-0.2824,-0.276,-0.2755,-0.2709,-0.2719,-0.2738,-0.2742,-0.2744,-0.2759,-0.2705,-0.2704,-0.2625,-0.2729,-0.2726,-0.2724,-0.2723,-0.2642,-0.2642,0,0,0,0,0,0,-0.2802,-0.2795,-0.2825,-0.2824,-0.2824,-0.2734,-0.272,-0.2678,-0.2708,-0.2741,-0.272,-0.2725,-0.2759,-0.2755,-0.2702,-0.2624,-0.2625,-0.2729,-0.2727,-0.2726,-0.2725,0,0,0,0,0,0,0,-0.2798,-0.2871,-0.2823,-0.2825,-0.2824,-0.2696,-0.2693,-0.2689,-0.2709,-0.2714,-0.2718,-0.2723,-0.2747,-0.2743,-0.274,-0.2622,0,0,-0.2729,-0.2728,0,0,0,0,0,0,0,0,-0.2872,-0.2871,-0.2823,-0.2822,-0.2822,-0.2696,-0.2693,-0.269,-0.271,-0.2714,-0.2717,-0.2721,-0.2746,-0.2743,-0.274,0,0,0,0,0,0,0,0,0,0,0,0,0,0,0,-0.2823,-0.2822,0,-0.2695,-0.2693,-0.2691,-0.271,-0.2713,-0.2717,-0.272,-0.2745,-0.2743,-0.2741,0,0,0,0,0,0,0,0,0,0,0,0,0,0,0,0,0,0,0,0,0,0,0,0,0,0,0,0,0,0,0,0,0,0,0,0,0,0,0,0,0,0,0,0,0,0,0,0,0,0,0,0,0,0,0,0,0,0,0,0,0,0,0,0,0,0,0,0,0]}],[{"header":{"parameterUnit":"kt","parameterCategory":2,"dx":1,"dy":1,"la1":30.253999710083008,"la2":30.299108505249023,"lo1":-89.0895004272461,"lo2":-89.04439544677734,"nx":28,"ny":28,"refTime":"2022-10-03T21:00:00:Z","depth":"4","parameterNumber":3,"parameterNumberName":"V-component_of_CURRENTS"},"data":[-0.1473,-0.1639,-0.1705,-0.1896,-0.1985,-0.2092,-0.2079,-0.1971,-0.1844,-0.1643,-0.1398,-0.1175,-0.0745,-0.0902,-0.0298,-0.0214,-0.0113,0.0345,0.035,0.0498,0.0495,0.0493,0.031,0,0,0,0,0,-0.1405,-0.1526,-0.1676,-0.1807,-0.1925,-0.1975,-0.1976,-0.1916,-0.1751,-0.1612,-0.1478,-0.1201,-0.0745,-0.0522,-0.0287,-0.0177,0.0149,0.0104,0.0219,0.0496,0.0493,0.0317,0,0,0,0,0,0,-0.1327,-0.1414,-0.1549,-0.1673,-0.1796,-0.1861,-0.1843,-0.1775,-0.1707,-0.1455,-0.1377,-0.1027,-0.0807,-0.041,-0.0152,0.0087,0.0151,0.0218,0.0229,0.023,0.005,-0.0105,0.0078,0,0,0,0,0,-0.125,-0.1296,-0.1373,-0.1538,-0.162,-0.1681,-0.1713,-0.1687,-0.1564,-0.1471,-0.1242,-0.0981,-0.0702,-0.0371,-0.0097,0.0161,0.0324,0.0418,0.0418,0.0348,0.026,0.0249,0.0221,0.0481,0.0481,0.048,0.048,0,-0.1174,-0.1218,-0.1316,-0.1392,-0.1423,-0.1471,-0.1515,-0.1433,-0.1419,-0.1235,-0.1217,-0.0967,-0.0813,-0.037,-0.0128,0.0245,0.0271,0.0408,0.0333,0.0252,0.0248,0.0219,0.0192,0.0478,0.0478,0.0478,0.0478,0,-0.1147,-0.1163,-0.1229,-0.1264,-0.1284,-0.1323,-0.1329,-0.1333,-0.1235,-0.1189,-0.1158,-0.0945,-0.0704,-0.0476,-0.0153,-0.0029,0.0211,0.0288,0.0125,0.0128,0.0203,0.0176,0.0473,0.0474,0.0475,0.0476,0.0476,0,-0.1097,-0.1132,-0.1168,-0.1199,-0.1247,-0.1207,-0.1221,-0.1183,-0.111,-0.1087,-0.0944,-0.0879,-0.0655,-0.0476,-0.0304,-0.0069,-0.0009,0.0065,0.0091,-0.0047,-0.0071,-0.0002,-0.0025,0.0167,0.0165,0.0163,0.0161,0,-0.1068,-0.1092,-0.1132,-0.1136,-0.1141,-0.1142,-0.1136,-0.1073,-0.1065,-0.0956,-0.0932,-0.0765,-0.0716,-0.0507,-0.0362,-0.0394,-0.0074,-0.0096,0.0006,0.0003,-0.0023,-0.0041,0.0159,0.0158,0.0158,0.0157,0.0156,0,-0.1023,-0.1051,-0.1091,-0.1096,-0.1098,-0.1106,-0.1073,-0.1063,-0.098,-0.0963,-0.0882,-0.0845,-0.0717,-0.0733,-0.0474,-0.0573,-0.0442,-0.036,-0.0348,-0.0353,-0.0403,-0.0359,-0.0246,-0.025,-0.0254,-0.0258,-0.0261,0,-0.0998,-0.1036,-0.1018,-0.1048,-0.107,-0.104,-0.1031,-0.1008,-0.0991,-0.0962,-0.09,-0.0884,-0.0884,-0.0881,-0.0769,-0.0683,-0.0551,-0.0702,-0.0418,-0.0409,-0.045,-0.0346,-0.0584,-0.0316,-0.0309,-0.0304,-0.03,0,-0.0973,-0.0988,-0.0994,-0.1008,-0.1,-0.1014,-0.0999,-0.0985,-0.0972,-0.0985,-0.0951,-0.0931,-0.0915,-0.089,-0.0881,-0.0781,-0.0631,-0.0771,-0.0764,-0.0659,-0.0357,-0.0407,-0.038,-0.0611,-0.0605,-0.0601,-0.0338,0,-0.0948,-0.0965,-0.0972,-0.0979,-0.0984,-0.1,-0.0995,-0.1008,-0.1027,-0.1025,-0.1002,-0.0995,-0.0962,-0.0974,-0.097,-0.0864,-0.0849,-0.0853,-0.0821,-0.0779,-0.0677,-0.0647,-0.0989,-0.0989,-0.0988,-0.0988,0,0,-0.0924,-0.094,-0.0939,-0.0949,-0.0953,-0.0961,-0.0977,-0.0988,-0.102,-0.101,-0.104,-0.1019,-0.1015,-0.0952,-0.0958,-0.0973,-0.0899,-0.0958,-0.0829,-0.0812,-0.0796,-0.0694,-0.0666,-0.0987,-0.0987,-0.0987,-0.0987,0,-0.0909,-0.0914,-0.0929,-0.0936,-0.095,-0.0958,-0.0963,-0.0997,-0.101,-0.1033,-0.1025,-0.1009,-0.103,-0.0991,-0.0974,-0.0975,-0.0911,-0.0995,-0.0955,-0.0831,-0.0815,-0.08,-0.0698,-0.0673,-0.0986,-0.0986,-0.0986,0,-0.0888,-0.0889,-0.0898,-0.0913,-0.0932,-0.0944,-0.0954,-0.0977,-0.0987,-0.0986,-0.1015,-0.1016,-0.0991,-0.099,-0.0987,-0.0977,-0.0893,-0.0976,-0.0977,-0.0937,-0.0806,-0.0789,-0.0774,-0.0961,-0.0961,-0.0961,0,0,-0.0876,-0.0884,-0.0894,-0.0911,-0.0917,-0.0944,-0.096,-0.0972,-0.0984,-0.0995,-0.1006,-0.1001,-0.0989,-0.0981,-0.0981,-0.0978,-0.0898,-0.0975,-0.0976,-0.0977,-0.0939,-0.0808,-0.0793,-0.0962,-0.0962,-0.0962,0,0,-0.0872,-0.0877,-0.0883,-0.0898,-0.0915,-0.0942,-0.096,-0.0975,-0.0995,-0.0996,-0.099,-0.0987,-0.0988,-0.0976,-0.098,-0.0971,-0.0964,-0.0963,-0.0981,-0.0983,-0.0984,-0.0938,-0.0968,0,0,0,0,0,-0.0861,-0.0872,-0.0877,-0.0881,-0.0917,-0.0939,-0.0947,-0.0967,-0.0976,-0.0992,-0.0992,-0.0984,-0.0972,-0.0975,-0.0975,-0.0976,-0.0964,-0.0964,-0.0963,-0.0986,-0.0988,-0.0989,0,0,0,0,0,0,-0.0862,-0.0866,-0.0877,-0.0899,-0.0907,-0.0939,-0.0942,-0.0949,-0.0974,-0.0976,-0.0987,-0.0984,-0.0977,-0.0974,-0.0975,-0.0975,-0.0968,-0.0964,-0.0964,-0.0963,-0.0987,-0.0988,-0.0989,0,0,0,0,0,-0.0863,-0.0866,-0.0914,-0.0901,-0.0908,-0.0934,-0.0941,-0.0947,-0.0978,-0.0967,-0.0968,-0.0989,-0.0978,-0.0977,-0.0974,-0.0975,-0.0968,-0.0968,-0.0964,-0.0963,-0.0963,-0.0987,0,0,0,0,0,0,-0.0864,-0.089,-0.0916,-0.092,-0.0889,-0.0934,-0.094,-0.0946,-0.0968,-0.0969,-0.0965,-0.0966,-0.0979,-0.0978,-0.0977,-0.0975,-0.0968,-0.0968,-0.0968,-0.0963,-0.0963,-0.0963,0,0,0,0,0,0,-0.0888,-0.0893,-0.0919,-0.0902,-0.0905,-0.0933,-0.0938,-0.0941,-0.0966,-0.0967,-0.0968,-0.0965,-0.0953,-0.0978,-0.0978,-0.0984,-0.0968,-0.0968,-0.0968,-0.0968,-0.0963,-0.0963,0,0,0,0,0,0,-0.0891,-0.0895,-0.0902,-0.0904,-0.0906,-0.0955,-0.0935,-0.096,-0.0989,-0.0965,-0.0986,-0.0985,-0.0952,-0.0953,-0.0978,-0.0986,-0.0985,-0.0968,-0.0968,-0.0968,-0.0968,0,0,0,0,0,0,0,-0.0893,-0.0852,-0.0885,-0.0905,-0.0907,-0.0952,-0.0954,-0.0956,-0.0988,-0.0987,-0.0987,-0.0986,-0.0967,-0.0967,-0.0967,-0.0986,0,0,-0.0968,-0.0968,0,0,0,0,0,0,0,0,-0.0851,-0.0852,-0.0885,-0.0886,-0.0886,-0.0952,-0.0954,-0.0956,-0.0988,-0.0988,-0.0987,-0.0986,-0.0967,-0.0967,-0.0967,0,0,0,0,0,0,0,0,0,0,0,0,0,0,0,-0.0885,-0.0886,0,-0.0953,-0.0954,-0.0955,-0.0988,-0.0988,-0.0987,-0.0986,-0.0967,-0.0967,-0.0967,0,0,0,0,0,0,0,0,0,0,0,0,0,0,0,0,0,0,0,0,0,0,0,0,0,0,0,0,0,0,0,0,0,0,0,0,0,0,0,0,0,0,0,0,0,0,0,0,0,0,0,0,0,0,0,0,0,0,0,0,0,0,0,0,0,0,0,0,0]}]]]